Time,TemperatureF,DewpointF,PressureIn,WindDirection,WindDirectionDegrees,WindSpeedMPH,WindSpeedGustMPH,Humidity,HourlyPrecipIn,Conditions,Clouds,dailyrainin,SoftwareType,DateUTC
2013-02-22 00:02:00,17.0,14.0,-100.00,SW,215,8.0,13.0,89,0.00,,,-99.99,,2013-02-22 05:02:00,
2013-02-22 00:12:00,17.0,14.0,-100.00,SW,220,7.0,12.0,90,0.00,,,-99.99,,2013-02-22 05:12:00,
2013-02-22 00:22:00,16.0,14.0,-100.00,SW,225,7.0,9.0,90,0.00,,,-99.99,,2013-02-22 05:22:00,
2013-02-22 00:32:00,16.0,14.0,-100.00,SW,220,4.0,9.0,90,0.00,,,-99.99,,2013-02-22 05:32:00,
2013-02-22 00:42:00,16.0,14.0,-100.00,SW,220,4.0,9.0,90,0.00,,,-99.99,,2013-02-22 05:42:00,
2013-02-22 00:52:00,16.0,14.0,-100.00,SSW,210,4.0,9.0,90,0.00,,,-99.99,,2013-02-22 05:52:00,
2013-02-22 01:02:00,16.0,14.0,-100.00,SW,215,6.0,7.0,91,0.00,,,-99.99,,2013-02-22 06:02:00,
2013-02-22 01:12:00,16.0,14.0,-100.00,SW,215,6.0,7.0,91,0.00,,,-99.99,,2013-02-22 06:12:00,
2013-02-22 01:22:00,16.0,14.0,-100.00,WSW,240,4.0,8.0,91,0.00,,,-99.99,,2013-02-22 06:22:00,
2013-02-22 01:32:00,16.0,14.0,-100.00,WSW,250,4.0,7.0,91,0.00,,,-99.99,,2013-02-22 06:32:00,
2013-02-22 01:42:00,16.0,14.0,-100.00,West,270,5.0,8.0,91,0.00,,,-99.99,,2013-02-22 06:42:00,
2013-02-22 01:52:00,16.0,14.0,-100.00,West,270,5.0,8.0,91,0.00,,,-99.99,,2013-02-22 06:52:00,
2013-02-22 02:01:00,16.0,14.0,-100.00,SW,215,5.0,7.0,91,0.00,,,-99.99,,2013-02-22 07:01:00,
2013-02-22 02:11:00,16.0,14.0,-100.00,SW,235,4.0,7.0,91,0.00,,,-99.99,,2013-02-22 07:11:00,
2013-02-22 02:21:00,16.0,14.0,-100.00,WSW,240,4.0,6.0,91,0.00,,,-99.99,,2013-02-22 07:21:00,
2013-02-22 02:32:00,16.0,14.0,-100.00,WSW,255,6.0,7.0,91,0.00,,,-99.99,,2013-02-22 07:32:00,
2013-02-22 02:42:00,17.0,14.0,-100.00,WSW,250,6.0,9.0,91,0.00,,,-99.99,,2013-02-22 07:42:00,
2013-02-22 02:51:00,17.0,14.0,-100.00,SW,225,7.0,10.0,91,0.00,,,-99.99,,2013-02-22 07:51:00,
2013-02-22 03:01:00,17.0,15.0,-100.00,West,265,8.0,12.0,90,0.00,,,-99.99,,2013-02-22 08:01:00,
2013-02-22 03:11:00,17.0,15.0,-100.00,WSW,250,6.0,11.0,90,0.00,,,-99.99,,2013-02-22 08:11:00,
2013-02-22 03:21:00,17.0,15.0,-100.00,WSW,250,6.0,11.0,90,0.00,,,-99.99,,2013-02-22 08:21:00,
2013-02-22 03:32:00,17.0,15.0,-100.00,West,260,9.0,12.0,89,0.00,,,-99.99,,2013-02-22 08:32:00,
2013-02-22 03:42:00,17.0,15.0,-100.00,WSW,250,6.0,13.0,89,0.00,,,-99.99,,2013-02-22 08:42:00,
2013-02-22 03:52:00,17.0,15.0,-100.00,WSW,250,6.0,13.0,89,0.00,,,-99.99,,2013-02-22 08:52:00,
2013-02-22 04:03:00,17.0,15.0,-100.00,WSW,240,7.0,12.0,88,0.00,,,-99.99,,2013-02-22 09:03:00,
2013-02-22 04:11:00,17.0,15.0,-100.00,WSW,240,7.0,12.0,88,0.00,,,-99.99,,2013-02-22 09:11:00,
2013-02-22 04:21:00,18.0,15.0,-100.00,SW,230,9.0,12.0,88,0.00,,,-99.99,,2013-02-22 09:21:00,
2013-02-22 04:32:00,18.0,15.0,-100.00,SW,235,8.0,12.0,88,0.00,,,-99.99,,2013-02-22 09:32:00,
2013-02-22 04:42:00,18.0,15.0,-100.00,SW,230,8.0,13.0,87,0.00,,,-99.99,,2013-02-22 09:42:00,
2013-02-22 04:52:00,18.0,15.0,-100.00,SSW,205,6.0,12.0,87,0.00,,,-99.99,,2013-02-22 09:52:00,
2013-02-22 05:01:00,18.0,15.0,-100.00,SW,220,7.0,13.0,87,0.00,,,-99.99,,2013-02-22 10:01:00,
2013-02-22 05:11:00,19.0,15.0,-100.00,SSW,210,9.0,15.0,86,0.00,,,-99.99,,2013-02-22 10:11:00,
2013-02-22 05:21:00,19.0,15.0,-100.00,SW,215,9.0,16.0,85,0.00,,,-99.99,,2013-02-22 10:21:00,
2013-02-22 05:32:00,19.0,15.0,-100.00,SW,215,9.0,16.0,85,0.00,,,-99.99,,2013-02-22 10:32:00,
2013-02-22 05:42:00,20.0,15.0,-100.00,SSW,205,11.0,18.0,83,0.00,,,-99.99,,2013-02-22 10:42:00,
2013-02-22 05:51:00,20.0,16.0,-100.00,SW,230,11.0,18.0,82,0.00,,,-99.99,,2013-02-22 10:51:00,
2013-02-22 06:01:00,21.0,16.0,-100.00,WSW,250,9.0,19.0,82,0.00,,,-99.99,,2013-02-22 11:01:00,
2013-02-22 06:11:00,21.0,16.0,-100.00,SW,230,9.0,18.0,80,0.00,,,-99.99,,2013-02-22 11:11:00,
2013-02-22 06:21:00,22.0,16.0,-100.00,WSW,240,12.0,16.0,79,0.00,,,-99.99,,2013-02-22 11:21:00,
2013-02-22 06:32:00,22.0,17.0,-100.00,West,270,13.0,19.0,78,0.00,,,-99.99,,2013-02-22 11:32:00,
2013-02-22 06:42:00,22.0,17.0,-100.00,WSW,255,16.0,21.0,77,0.00,,,-99.99,,2013-02-22 11:42:00,
2013-02-22 06:52:00,22.0,16.0,-100.00,WSW,240,12.0,19.0,77,0.00,,,-99.99,,2013-02-22 11:52:00,
2013-02-22 07:02:00,22.0,17.0,-100.00,WSW,255,11.0,20.0,77,0.00,,,-99.99,,2013-02-22 12:02:00,
2013-02-22 07:11:00,23.0,17.0,-100.00,WSW,255,12.0,21.0,77,0.00,,,-99.99,,2013-02-22 12:11:00,
2013-02-22 07:22:00,23.0,17.0,-100.00,WSW,255,12.0,16.0,77,0.00,,,-99.99,,2013-02-22 12:22:00,
2013-02-22 07:32:00,23.0,17.0,-100.00,WSW,250,12.0,18.0,77,0.00,,,-99.99,,2013-02-22 12:32:00,
2013-02-22 07:42:00,23.0,17.0,-100.00,WSW,250,10.0,15.0,77,0.00,,,-99.99,,2013-02-22 12:42:00,
2013-02-22 07:52:00,24.0,17.0,-100.00,WSW,250,12.0,16.0,76,0.00,,,-99.99,,2013-02-22 12:52:00,
2013-02-22 08:02:00,24.0,18.0,-100.00,West,265,11.0,17.0,75,0.00,,,-99.99,,2013-02-22 13:02:00,
2013-02-22 08:11:00,24.0,18.0,-100.00,WSW,250,12.0,17.0,74,0.00,,,-99.99,,2013-02-22 13:11:00,
2013-02-22 08:22:00,25.0,18.0,-100.00,WSW,250,12.0,19.0,74,0.00,,,-99.99,,2013-02-22 13:22:00,
2013-02-22 08:32:00,25.0,19.0,-100.00,SW,230,11.0,21.0,75,0.55,,,-99.99,,2013-02-22 13:32:00,
2013-02-22 08:42:00,25.0,19.0,-100.00,West,260,14.0,21.0,75,1.69,,,-99.99,,2013-02-22 13:42:00,
2013-02-22 08:52:00,26.0,19.0,-100.00,WSW,255,12.0,21.0,76,0.55,,,-99.99,,2013-02-22 13:52:00,
2013-02-22 09:01:00,26.0,20.0,-100.00,West,260,11.0,24.0,77,0.00,,,-99.99,,2013-02-22 14:01:00,
2013-02-22 09:11:00,26.0,20.0,-100.00,WSW,240,13.0,22.0,78,0.00,,,-99.99,,2013-02-22 14:11:00,
2013-02-22 09:21:00,26.0,20.0,-100.00,West,270,15.0,21.0,79,0.00,,,-99.99,,2013-02-22 14:21:00,
2013-02-22 09:32:00,26.0,21.0,-100.00,West,265,15.0,21.0,80,0.00,,,-99.99,,2013-02-22 14:32:00,
2013-02-22 09:42:00,26.0,21.0,-100.00,West,265,14.0,21.0,79,0.00,,,-99.99,,2013-02-22 14:42:00,
2013-02-22 09:52:00,26.0,21.0,-100.00,West,265,17.0,24.0,78,0.00,,,-99.99,,2013-02-22 14:52:00,
2013-02-22 10:02:00,27.0,21.0,-100.00,West,265,13.0,24.0,77,0.00,,,-99.99,,2013-02-22 15:02:00,
2013-02-22 10:11:00,27.0,21.0,-100.00,West,265,13.0,24.0,77,0.00,,,-99.99,,2013-02-22 15:11:00,
2013-02-22 10:22:00,27.0,22.0,-100.00,West,270,16.0,24.0,79,0.00,,,-99.99,,2013-02-22 15:22:00,
2013-02-22 10:32:00,28.0,22.0,-100.00,West,265,16.0,24.0,78,0.00,,,-99.99,,2013-02-22 15:32:00,
2013-02-22 10:42:00,28.0,22.0,-100.00,West,265,11.0,25.0,79,0.00,,,-99.99,,2013-02-22 15:42:00,
2013-02-22 10:52:00,28.0,23.0,-100.00,West,280,13.0,24.0,80,0.00,,,-99.99,,2013-02-22 15:52:00,
2013-02-22 11:02:00,28.0,24.0,-100.00,West,280,15.0,25.0,84,0.00,,,-99.99,,2013-02-22 16:02:00,
2013-02-22 11:12:00,28.0,25.0,-100.00,WNW,285,13.0,21.0,87,0.00,,,-99.99,,2013-02-22 16:12:00,
2013-02-22 11:22:00,28.0,25.0,-100.00,WNW,290,14.0,21.0,88,0.00,,,-99.99,,2013-02-22 16:22:00,
2013-02-22 11:32:00,29.0,26.0,-100.00,WNW,285,13.0,21.0,88,1.69,,,-99.99,,2013-02-22 16:32:00,
2013-02-22 11:42:00,29.0,26.0,-100.00,WNW,285,12.0,21.0,89,1.69,,,-99.99,,2013-02-22 16:42:00,
2013-02-22 11:52:00,29.0,26.0,-100.00,West,270,12.0,20.0,90,0.00,,,-99.99,,2013-02-22 16:52:00,
2013-02-22 12:01:00,29.0,27.0,-100.00,West,270,13.0,20.0,91,0.00,,,-99.99,,2013-02-22 17:01:00,
2013-02-22 12:11:00,29.0,27.0,-100.00,WNW,295,11.0,19.0,92,0.00,,,-99.99,,2013-02-22 17:11:00,
2013-02-22 12:21:00,29.0,27.0,-100.00,WNW,290,10.0,18.0,93,0.00,,,-99.99,,2013-02-22 17:21:00,
2013-02-22 12:32:00,29.0,28.0,-100.00,West,275,15.0,21.0,94,0.00,,,-99.99,,2013-02-22 17:32:00,
2013-02-22 12:42:00,29.0,28.0,-100.00,WNW,290,11.0,21.0,95,0.00,,,-99.99,,2013-02-22 17:42:00,
2013-02-22 12:52:00,29.0,28.0,-100.00,West,280,11.0,17.0,96,0.00,,,-99.99,,2013-02-22 17:52:00,
2013-02-22 13:02:00,30.0,29.0,-100.00,West,280,12.0,18.0,96,0.00,,,-99.99,,2013-02-22 18:02:00,
2013-02-22 13:12:00,30.0,29.0,-100.00,WNW,295,11.0,18.0,97,0.00,,,-99.99,,2013-02-22 18:12:00,
2013-02-22 13:22:00,30.0,30.0,-100.00,WNW,290,14.0,17.0,97,0.00,,,-99.99,,2013-02-22 18:22:00,
2013-02-22 13:32:00,31.0,30.0,-100.00,West,280,12.0,17.0,97,0.00,,,-99.99,,2013-02-22 18:32:00,
2013-02-22 13:42:00,31.0,30.0,-100.00,WNW,290,11.0,17.0,98,0.00,,,-99.99,,2013-02-22 18:42:00,
2013-02-22 13:51:00,31.0,31.0,-100.00,West,280,12.0,17.0,99,0.00,,,-99.99,,2013-02-22 18:51:00,
2013-02-22 14:01:00,31.0,31.0,-100.00,WNW,295,11.0,17.0,99,0.00,,,-99.99,,2013-02-22 19:01:00,
2013-02-22 14:11:00,31.0,31.0,-100.00,WNW,295,11.0,17.0,99,0.00,,,-99.99,,2013-02-22 19:11:00,
2013-02-22 14:21:00,32.0,31.0,-100.00,WNW,285,9.0,16.0,99,0.00,,,-99.99,,2013-02-22 19:21:00,
2013-02-22 14:31:00,32.0,32.0,-100.00,WNW,295,7.0,14.0,99,0.00,,,-99.99,,2013-02-22 19:31:00,
2013-02-22 14:41:00,32.0,32.0,-100.00,WNW,290,9.0,12.0,99,0.00,,,-99.99,,2013-02-22 19:41:00,
2013-02-22 14:52:00,32.0,32.0,-100.00,WNW,285,7.0,12.0,99,0.00,,,-99.99,,2013-02-22 19:52:00,
2013-02-22 15:01:00,32.0,32.0,-100.00,WNW,290,8.0,12.0,99,0.00,,,-99.99,,2013-02-22 20:01:00,
2013-02-22 15:11:00,32.0,32.0,-100.00,WNW,295,7.0,12.0,99,0.00,,,-99.99,,2013-02-22 20:11:00,
2013-02-22 15:21:00,33.0,33.0,-100.00,WNW,295,8.0,11.0,99,0.00,,,-99.99,,2013-02-22 20:21:00,
2013-02-22 15:32:00,33.0,33.0,-100.00,WNW,295,9.0,11.0,99,0.00,,,-99.99,,2013-02-22 20:32:00,
2013-02-22 15:41:00,33.0,33.0,-100.00,WNW,290,9.0,12.0,99,0.00,,,-99.99,,2013-02-22 20:41:00,
2013-02-22 15:52:00,33.0,33.0,-100.00,WNW,295,9.0,12.0,99,0.00,,,-99.99,,2013-02-22 20:52:00,
2013-02-22 16:02:00,33.0,33.0,-100.00,WNW,295,10.0,14.0,99,0.00,,,-99.99,,2013-02-22 21:02:00,
2013-02-22 16:11:00,33.0,33.0,-100.00,West,280,11.0,16.0,99,0.00,,,-99.99,,2013-02-22 21:11:00,
2013-02-22 16:21:00,33.0,33.0,-100.00,WNW,290,10.0,15.0,99,0.00,,,-99.99,,2013-02-22 21:21:00,
2013-02-22 16:32:00,33.0,33.0,-100.00,WNW,290,10.0,15.0,99,0.00,,,-99.99,,2013-02-22 21:32:00,
2013-02-22 16:42:00,33.0,33.0,-100.00,WNW,295,9.0,14.0,99,0.00,,,-99.99,,2013-02-22 21:42:00,
2013-02-22 16:52:00,33.0,33.0,-100.00,WNW,290,11.0,15.0,99,0.00,,,-99.99,,2013-02-22 21:52:00,
2013-02-22 17:01:00,33.0,33.0,-100.00,WNW,290,11.0,15.0,99,0.00,,,-99.99,,2013-02-22 22:01:00,
2013-02-22 17:11:00,34.0,34.0,-100.00,NW,305,10.0,15.0,99,0.00,,,-99.99,,2013-02-22 22:11:00,
2013-02-22 17:21:00,34.0,34.0,-100.00,NW,305,11.0,13.0,99,0.00,,,-99.99,,2013-02-22 22:21:00,
2013-02-22 17:32:00,34.0,34.0,-100.00,NW,315,9.0,13.0,99,0.00,,,-99.99,,2013-02-22 22:32:00,
2013-02-22 17:42:00,34.0,34.0,-100.00,WNW,300,8.0,12.0,99,0.00,,,-99.99,,2013-02-22 22:42:00,
2013-02-22 17:51:00,34.0,34.0,-100.00,WNW,300,7.0,11.0,99,0.00,,,-99.99,,2013-02-22 22:51:00,
2013-02-22 18:01:00,34.0,34.0,-100.00,WNW,300,7.0,11.0,99,0.00,,,-99.99,,2013-02-22 23:01:00,
2013-02-22 18:11:00,34.0,34.0,-100.00,NW,310,9.0,12.0,99,0.00,,,-99.99,,2013-02-22 23:11:00,
2013-02-22 18:21:00,34.0,34.0,-100.00,NW,305,9.0,12.0,99,0.00,,,-99.99,,2013-02-22 23:21:00,
2013-02-22 18:32:00,34.0,34.0,-100.00,WNW,295,9.0,12.0,99,0.00,,,-99.99,,2013-02-22 23:32:00,
2013-02-22 18:42:00,34.0,34.0,-100.00,WNW,295,9.0,12.0,99,0.00,,,-99.99,,2013-02-22 23:42:00,
2013-02-22 18:52:00,34.0,34.0,-100.00,WNW,295,9.0,12.0,99,0.00,,,-99.99,,2013-02-22 23:52:00,
2013-02-22 19:02:00,35.0,35.0,-100.00,WNW,300,7.0,12.0,99,0.00,,,-99.99,,2013-02-23 00:02:00,
2013-02-22 19:11:00,35.0,35.0,-100.00,NW,310,9.0,11.0,99,0.00,,,-99.99,,2013-02-23 00:11:00,
2013-02-22 19:21:00,35.0,35.0,-100.00,NW,310,9.0,11.0,99,0.00,,,-99.99,,2013-02-23 00:21:00,
2013-02-22 19:32:00,35.0,35.0,-100.00,NW,310,8.0,12.0,99,0.00,,,-99.99,,2013-02-23 00:32:00,
2013-02-22 19:42:00,35.0,35.0,-100.00,NW,320,7.0,11.0,99,0.00,,,-99.99,,2013-02-23 00:42:00,
2013-02-22 19:51:00,35.0,35.0,-100.00,NW,310,8.0,11.0,99,0.00,,,-99.99,,2013-02-23 00:51:00,
2013-02-22 20:01:00,35.0,35.0,-100.00,NW,315,7.0,10.0,99,0.00,,,-99.99,,2013-02-23 01:01:00,
2013-02-22 20:11:00,35.0,35.0,-100.00,NW,310,7.0,10.0,99,0.00,,,-99.99,,2013-02-23 01:11:00,
2013-02-22 20:21:00,35.0,35.0,-100.00,NW,320,6.0,9.0,99,0.00,,,-99.99,,2013-02-23 01:21:00,
2013-02-22 20:32:00,34.0,34.0,-100.00,NW,310,7.0,8.0,99,0.00,,,-99.99,,2013-02-23 01:32:00,
2013-02-22 20:42:00,34.0,34.0,-100.00,WNW,300,4.0,8.0,99,0.00,,,-99.99,,2013-02-23 01:42:00,
2013-02-22 20:51:00,34.0,34.0,-100.00,NW,305,7.0,9.0,99,0.00,,,-99.99,,2013-02-23 01:51:00,
2013-02-22 21:01:00,34.0,34.0,-100.00,NW,305,6.0,9.0,99,0.00,,,-99.99,,2013-02-23 02:01:00,
2013-02-22 21:11:00,34.0,34.0,-100.00,NW,310,5.0,7.0,99,0.00,,,-99.99,,2013-02-23 02:11:00,
2013-02-22 21:21:00,35.0,35.0,-100.00,NW,315,5.0,7.0,99,0.00,,,-99.99,,2013-02-23 02:21:00,
2013-02-22 21:32:00,34.0,34.0,-100.00,NW,310,3.0,5.0,99,0.00,,,-99.99,,2013-02-23 02:32:00,
2013-02-22 21:42:00,34.0,34.0,-100.00,WNW,300,6.0,7.0,99,0.00,,,-99.99,,2013-02-23 02:42:00,
2013-02-22 21:52:00,35.0,35.0,-100.00,NW,305,7.0,9.0,99,0.00,,,-99.99,,2013-02-23 02:52:00,
2013-02-22 22:02:00,35.0,35.0,-100.00,NW,305,6.0,7.0,99,0.00,,,-99.99,,2013-02-23 03:02:00,
2013-02-22 22:11:00,35.0,35.0,-100.00,NW,305,6.0,7.0,99,0.00,,,-99.99,,2013-02-23 03:11:00,
2013-02-22 22:21:00,35.0,35.0,-100.00,NW,310,6.0,7.0,99,0.00,,,-99.99,,2013-02-23 03:21:00,
2013-02-22 22:32:00,35.0,35.0,-100.00,NW,310,6.0,7.0,99,0.00,,,-99.99,,2013-02-23 03:32:00,
2013-02-22 22:42:00,35.0,35.0,-100.00,NW,315,6.0,7.0,99,0.00,,,-99.99,,2013-02-23 03:42:00,
2013-02-22 22:52:00,35.0,35.0,-100.00,NW,315,6.0,7.0,99,0.00,,,-99.99,,2013-02-23 03:52:00,
2013-02-22 23:01:00,35.0,35.0,-100.00,NW,315,6.0,7.0,99,0.00,,,-99.99,,2013-02-23 04:01:00,
2013-02-22 23:11:00,35.0,35.0,-100.00,WNW,300,4.0,7.0,99,0.00,,,-99.99,,2013-02-23 04:11:00,
2013-02-22 23:21:00,35.0,35.0,-100.00,NW,305,6.0,6.0,99,0.00,,,-99.99,,2013-02-23 04:21:00,
2013-02-22 23:32:00,35.0,35.0,-100.00,NW,315,4.0,6.0,99,0.00,,,-99.99,,2013-02-23 04:32:00,
2013-02-22 23:42:00,35.0,35.0,-100.00,NW,310,4.0,4.0,99,0.00,,,-99.99,,2013-02-23 04:42:00,
2013-02-22 23:51:00,35.0,35.0,-100.00,NW,310,5.0,6.0,100,0.00,,,-99.99,,2013-02-23 04:51:00,